Simultaneous Nadir Overpasses (SNOs) Predictions

Prediction of SNOs near equator between AQUA and NPP Satellite Orbit:

Table of predicted SNOs near equator for the next 14.0 days since TLE Epoch: 10/5/2018
Index Date (AQUA) Time (AQUA) AQUA Lat,Lon Date (NPP) Time (NPP) NPP Lat,Lon Distance(km) Time Diff (sec)
1 10/07/2018 15:43:04 -29.96, 143.38 10/07/2018 15:33:04 -30.28, 143.02 50.21 600
2 10/07/2018 16:25:03 2.69, -42.76 10/07/2018 16:16:01 2.61, -43.02 30.01 542
3 10/07/2018 17:13:08 1.93, 125.88 10/07/2018 17:05:23 2.02, 125.35 60.31 465
4 10/07/2018 18:01:25 -6.44, -65.54 10/07/2018 17:54:54 -6.62, -66.33 89.42 391
5 10/10/2018 07:52:50 -5.69, -95.14 10/10/2018 07:42:59 -5.68, -95.23 10.58 591
6 10/10/2018 08:41:07 1.18, 73.44 10/10/2018 08:32:30 1.08, 73.09 40.36 517
7 10/10/2018 09:29:12 3.44,-117.92 10/10/2018 09:21:52 3.55,-118.55 70.67 440
8 10/10/2018 10:17:29 -7.95, 50.66 10/10/2018 10:11:23 -8.14, 49.78 99.42 366
9 10/13/2018 00:08:53 -4.18, 21.06 10/12/2018 23:59:27 -4.16, 20.87 21.03 566
10 10/13/2018 00:57:10 -0.33,-170.36 10/13/2018 00:48:58 -0.44,-170.81 50.80 492
11 10/13/2018 01:45:16 4.89, -1.73 10/13/2018 01:38:20 5.07, -2.44 80.93 416
12 10/15/2018 15:43:08 29.99, -36.65 10/15/2018 15:33:08 30.38, -37.04 57.20 600
13 10/15/2018 16:24:57 -2.68, 137.26 10/15/2018 16:15:56 -2.64, 136.98 31.52 541
14 10/15/2018 17:13:14 -1.82, -54.17 10/15/2018 17:05:27 -1.96, -54.70 61.26 467
15 10/15/2018 18:01:20 6.39, 114.47 10/15/2018 17:54:49 6.59, 113.67 91.09 391
16 10/18/2018 07:52:55 5.75, 84.82 10/18/2018 07:43:03 5.75, 84.72 11.74 592
17 10/18/2018 08:41:01 -1.18,-106.54 10/18/2018 08:32:25 -1.12,-106.92 42.03 516
18 10/18/2018 09:29:18 -3.32, 62.03 10/18/2018 09:21:56 -3.47, 61.40 71.71 442




NCC Satellite Simultaneous Nadir Overpasses (SNOs) Prediction Service
